Fredericksburg, VA

2:56 AM EST on December 14, 2019 (GMT -0500)
Shannon

Weather History for KEZF - October, 2019

Change the Weather History Date:

Wednesday, October 9, 2019

  Actual Average (KNYG) Record (KNYG)
Temperature  
Mean Temperature 63 °F -  
Max Temperature 71 °F 67 °F 87 °F (2017)
Min Temperature 55 °F 49 °F 31 °F (2001)
Degree Days  
Heating Degree Days 2    
Growing Degree Days 13 (Base 50)    
Moisture  
Dew Point 53 °F    
Average Humidity 73    
Maximum Humidity 90    
Minimum Humidity 56    
Precipitation  
Precipitation 0.00 in - - ()
Sea Level Pressure  
Sea Level Pressure 30.20 in    
Wind  
Wind Speed 6 mph ()    
Max Wind Speed 12 mph    
Max Gust Speed 17 mph    
Visibility 10.0 miles    
Events      
Averages and records for this station are not official NWS values.
T = Trace of Precipitation, MM = Missing Value Source: Averaged Metar Reports

Daily Weather History Graph

Daily Weather History Graph

Search for Another Location

Airport or City:

Astronomy

Oct. 09, 2019 Rise Set
Actual Time 7:12 AM EDT 6:40 PM EDT
Civil Twilight 6:46 AM EDT 7:07 PM EDT
Nautical Twilight 6:15 AM EDT 7:37 PM EDT
Astronomical Twilight 5:44 AM EDT 8:08 PM EDT
Moon 5:07 PM EDT (10/9) 3:02 AM EDT (10/9)
Length of Visible Light 12h 21m
Length of Day
11h 28m
Waxing Gibbous, 85% of the Moon is Illuminated
Oct 9
Waxing Gibbous
Oct 13
Full
Oct 21
Last Quarter
Oct 27
New
Nov 4
First Quarter

Hourly Weather History & Observations

Time (EDT) Temp. Dew Point Humidity Pressure Visibility Wind Dir Wind Speed Gust Speed Precip Events Conditions
12:15 AM 62.6 °F 50.9 °F 66% 30.17 in 10.0 mi NW 3.5 mph - N/A   Overcast
12:35 AM 62.4 °F 50.9 °F 66% 30.17 in 10.0 mi NNW 3.5 mph - N/A   Overcast
12:55 AM 62.1 °F 50.9 °F 67% 30.17 in 10.0 mi North 3.5 mph - N/A   Overcast
1:15 AM 61.7 °F 50.9 °F 68% 30.17 in 10.0 mi North 5.8 mph - N/A   Overcast
1:35 AM 61.7 °F 50.7 °F 67% 30.17 in 10.0 mi NNW 5.8 mph - N/A   Overcast
1:55 AM 61.3 °F 50.4 °F 67% 30.17 in 10.0 mi North 5.8 mph - N/A   Overcast
2:15 AM 61.2 °F 50.2 °F 67% 30.17 in 10.0 mi NNW 6.9 mph - N/A   Mostly Cloudy
2:35 AM 61.0 °F 50.0 °F 67% 30.17 in 10.0 mi NNW 5.8 mph - N/A   Mostly Cloudy
2:55 AM 61.0 °F 49.6 °F 66% 30.17 in 10.0 mi NNW 5.8 mph - N/A   Overcast
3:15 AM 60.8 °F 50.0 °F 68% 30.17 in 10.0 mi North 6.9 mph - N/A   Overcast
3:35 AM 60.4 °F 49.8 °F 68% 30.17 in 10.0 mi North 8.1 mph - N/A   Overcast
3:55 AM 60.3 °F 50.0 °F 69% 30.17 in 10.0 mi North 4.6 mph - N/A   Overcast
4:15 AM 60.3 °F 49.5 °F 68% 30.17 in 10.0 mi North 5.8 mph - N/A   Overcast
4:35 AM 59.5 °F 50.2 °F 71% 30.17 in 10.0 mi North 9.2 mph - N/A   Overcast
4:55 AM 59.0 °F 50.4 °F 73% 30.17 in 10.0 mi North 5.8 mph - N/A   Overcast
5:15 AM 58.8 °F 50.4 °F 73% 30.18 in 10.0 mi NNW 10.4 mph - N/A   Overcast
5:35 AM 58.3 °F 50.9 °F 76% 30.19 in 10.0 mi North 6.9 mph - N/A   Overcast
5:55 AM 58.1 °F 50.7 °F 76% 30.19 in 10.0 mi NNW 5.8 mph - N/A   Overcast
6:15 AM 57.4 °F 50.5 °F 78% 30.19 in 10.0 mi North 6.9 mph - N/A   Overcast
6:35 AM 56.8 °F 50.9 °F 80% 30.20 in 10.0 mi North 6.9 mph - N/A   Overcast
6:55 AM 56.3 °F 50.9 °F 82% 30.20 in 10.0 mi North 4.6 mph - N/A   Mostly Cloudy
7:15 AM 55.8 °F 50.9 °F 84% 30.20 in 10.0 mi NNW 3.5 mph - N/A   Scattered Clouds
7:35 AM 55.9 °F 51.3 °F 84% 30.21 in 10.0 mi NNW 3.5 mph - N/A   Mostly Cloudy
7:55 AM 56.3 °F 51.4 °F 84% 30.21 in 10.0 mi NNW 8.1 mph - N/A   Overcast
8:15 AM 56.5 °F 51.8 °F 84% 30.21 in 10.0 mi North 8.1 mph - N/A   Mostly Cloudy
8:35 AM 56.7 °F 51.8 °F 84% 30.22 in 10.0 mi North 10.4 mph - N/A   Mostly Cloudy
8:55 AM 57.2 °F 52.2 °F 83% 30.23 in 10.0 mi North 9.2 mph 17.3 mph N/A   Overcast
9:15 AM 58.1 °F 52.3 °F 81% 30.23 in 10.0 mi North 8.1 mph 16.1 mph N/A   Overcast
9:35 AM 59.9 °F 52.7 °F 77% 30.23 in 10.0 mi North 11.5 mph 16.1 mph N/A   Scattered Clouds
9:55 AM 60.6 °F 52.7 °F 75% 30.24 in 10.0 mi NNE 8.1 mph - N/A   Scattered Clouds
10:15 AM 61.0 °F 52.9 °F 75% 30.24 in 10.0 mi North 5.8 mph 17.3 mph N/A   Mostly Cloudy
10:35 AM 62.8 °F 53.6 °F 72% 30.24 in 10.0 mi North 9.2 mph - N/A   Scattered Clouds
10:55 AM 62.8 °F 53.6 °F 72% 30.24 in 10.0 mi NNE 9.2 mph - N/A   Scattered Clouds
11:35 AM 63.5 °F 53.6 °F 70% 30.24 in 10.0 mi NE 9.2 mph 16.1 mph N/A   Overcast
11:55 AM 63.5 °F 53.8 °F 71% 30.23 in 10.0 mi NE 9.2 mph - N/A   Overcast
12:15 PM 64.2 °F 54.1 °F 70% 30.23 in 10.0 mi NE 6.9 mph - N/A   Overcast
12:35 PM 63.9 °F 54.0 °F 70% 30.23 in 10.0 mi NE 9.2 mph - N/A   Overcast
12:55 PM 65.3 °F 54.7 °F 68% 30.22 in 10.0 mi NNE 6.9 mph - N/A   Overcast
1:15 PM 66.7 °F 55.2 °F 66% 30.21 in 10.0 mi NNE 6.9 mph - N/A   Overcast
1:35 PM 67.3 °F 55.4 °F 66% 30.19 in 10.0 mi North 6.9 mph - N/A   Overcast
1:55 PM 68.0 °F 55.4 °F 64% 30.19 in 10.0 mi ENE 9.2 mph - N/A   Mostly Cloudy
2:15 PM 68.2 °F 55.6 °F 64% 30.18 in 10.0 mi ENE 4.6 mph - N/A   Mostly Cloudy
2:35 PM 69.3 °F 54.9 °F 60% 30.18 in 10.0 mi ENE 9.2 mph - N/A   Scattered Clouds
2:55 PM 69.8 °F 54.9 °F 59% 30.18 in 10.0 mi ENE 8.1 mph - N/A   Scattered Clouds
3:15 PM 70.5 °F 55.4 °F 59% 30.17 in 10.0 mi NNE 10.4 mph - N/A   Scattered Clouds
3:35 PM 71.1 °F 54.7 °F 56% 30.17 in 10.0 mi ENE 6.9 mph - N/A   Scattered Clouds
3:55 PM 70.0 °F 54.1 °F 57% 30.17 in 10.0 mi North 10.4 mph - N/A   Mostly Cloudy
4:15 PM 70.3 °F 54.3 °F 57% 30.17 in 10.0 mi ENE 10.4 mph - N/A   Mostly Cloudy
4:35 PM 69.3 °F 54.1 °F 59% 30.16 in 10.0 mi NE 6.9 mph - N/A   Mostly Cloudy
4:55 PM 69.1 °F 55.0 °F 61% 30.16 in 10.0 mi ENE 6.9 mph - N/A   Mostly Cloudy
5:15 PM 68.2 °F 56.3 °F 66% 30.17 in 10.0 mi ENE 4.6 mph - N/A   Mostly Cloudy
5:35 PM 68.0 °F 56.3 °F 66% 30.17 in 10.0 mi ENE 5.8 mph - N/A   Overcast
5:55 PM 67.5 °F 56.3 °F 67% 30.17 in 10.0 mi ENE 4.6 mph - N/A   Overcast
6:15 PM 67.1 °F 55.9 °F 67% 30.17 in 10.0 mi ENE 5.8 mph - N/A   Overcast
6:35 PM 65.8 °F 56.3 °F 71% 30.18 in 10.0 mi East 3.5 mph - N/A   Mostly Cloudy
6:55 PM 64.8 °F 57.2 °F 76% 30.18 in 10.0 mi East 4.6 mph - N/A   Scattered Clouds
7:15 PM 63.5 °F 56.8 °F 79% 30.19 in 10.0 mi ENE 3.5 mph - N/A   Clear
7:35 PM 62.8 °F 56.5 °F 80% 30.20 in 10.0 mi East 4.6 mph - N/A   Clear
7:55 PM 61.9 °F 56.3 °F 82% 30.20 in 10.0 mi ENE 3.5 mph - N/A   Clear
8:15 PM 61.0 °F 55.4 °F 82% 30.21 in 10.0 mi NE 8.1 mph - N/A   Clear
8:35 PM 60.8 °F 55.0 °F 81% 30.21 in 10.0 mi NE 5.8 mph - N/A   Clear
8:55 PM 60.3 °F 54.9 °F 82% 30.22 in 10.0 mi NNE 3.5 mph - N/A   Clear
9:15 PM 59.7 °F 54.7 °F 83% 30.22 in 10.0 mi NE 5.8 mph - N/A   Clear
9:35 PM 59.2 °F 54.5 °F 84% 30.22 in 10.0 mi NNE 3.5 mph - N/A   Clear
9:55 PM 58.5 °F 54.0 °F 85% 30.23 in 10.0 mi NNE 4.6 mph - N/A   Clear
10:15 PM 58.3 °F 54.0 °F 86% 30.23 in 10.0 mi NNE 3.5 mph - N/A   Clear
10:35 PM 57.7 °F 54.0 °F 87% 30.24 in 10.0 mi NNE 3.5 mph - N/A   Clear
10:55 PM 57.2 °F 53.8 °F 88% 30.24 in 10.0 mi Calm Calm - N/A   Clear
11:15 PM 56.5 °F 53.6 °F 90% 30.24 in 10.0 mi NNE 3.5 mph - N/A   Scattered Clouds
11:35 PM 57.0 °F 53.8 °F 89% 30.24 in 10.0 mi Calm Calm - N/A   Mostly Cloudy
11:55 PM 57.7 °F 53.8 °F 87% 30.25 in 10.0 mi Calm Calm - N/A   Overcast